Location: Colonia Mina de C?rbuni
(46.1667°N, 22.7167°E)
Time: 17:13:28
(UTC+00:00)

Cosmos 2315 Rocket - Pass Details

Date: 04 February 2023
Orbit: 965 x 1002 km, 82.9° (Epoch: 29 March)

Event Time Altitude Azimuth Distance (km) Brightness Sun altitude
Rises 17:30:00 0° 166° (SSE) 3,690 6.9 -19.6°
Reaches altitude 10° 17:32:36 10° 160° (SSE) 2,750 6.2 -20.1°
Maximum altitude 17:38:33 45° 90° (E) 1,329 4.2 -21.1°
Drops below altitude 10° 17:44:34 10° 20° (NNE) 2,784 6.2 -22.1°
Sets 17:47:13 0° 14° (NNE) 3,739 6.9 -22.6°
